Hourly Weather Bolshie Kalmyki

Today, 15 June, Tuesday

Time Temperature Precipitation Wind Pressure Humidity
00:00 +18°C° 0 mm 1 mps 739 mmHg 85%
01:00 +18°C° 0 mm 1 mps 739 mmHg 85%
02:00 +18°C° 0 mm 1 mps 739 mmHg 86%
03:00 +16°C° 0 mm 1 mps 739 mmHg 86%
04:00 +18°C° 0 mm 1 mps 739 mmHg 86%
05:00 +19°C° 0 mm 1 mps 739 mmHg 86%
06:00 +19°C° 0 mm 1 mps 739 mmHg 86%
07:00 +21°C° 0.1 mm 1 mps 739 mmHg 82%
08:00 +22°C° 0.1 mm 1 mps 739 mmHg 78%
09:00 +23°C° 0 mm 1 mps 739 mmHg 74%
10:00 +24°C° 0.6 mm 1 mps 739 mmHg 69%
11:00 +25°C° 0.6 mm 1 mps 739 mmHg 65%
12:00 +26°C° 0.6 mm 1 mps 738 mmHg 60%
13:00 +26°C° 0.1 mm 1 mps 738 mmHg 59%
14:00 +26°C° 0.1 mm 1 mps 738 mmHg 59%
15:00 +26°C° 0.1 mm 1 mps 737 mmHg 58%
16:00 +26°C° 0.4 mm 1 mps 737 mmHg 62%
17:00 +26°C° 0.4 mm 1 mps 736 mmHg 67%
18:00 +25°C° 0.4 mm 1 mps 736 mmHg 71%
19:00 +24°C° 0.3 mm 1 mps 736 mmHg 75%
20:00 +22°C° 0.3 mm 1 mps 736 mmHg 78%
21:00 +20°C° 0.3 mm 1 mps 736 mmHg 81%
22:00 +20°C° 0.1 mm 1 mps 736 mmHg 84%
23:00 +19°C° 0.1 mm 1 mps 736 mmHg 86%

Tomorrow, 16 June, Wednesday

Time Temperature Precipitation Wind Pressure Humidity
00:00 +17°C° 0.1 mm 2 mps 735 mmHg 88%
01:00 +17°C° 0 mm 2 mps 735 mmHg 89%
02:00 +16°C° 0 mm 2 mps 735 mmHg 91%
03:00 +16°C° 0 mm 2 mps 735 mmHg 92%
04:00 +16°C° 0 mm 2 mps 736 mmHg 93%
05:00 +17°C° 0 mm 2 mps 736 mmHg 93%
06:00 +17°C° 0 mm 2 mps 736 mmHg 93%
07:00 +18°C° 0 mm 3 mps 736 mmHg 88%
08:00 +20°C° 0 mm 3 mps 736 mmHg 82%
09:00 +21°C° 0 mm 4 mps 737 mmHg 77%
10:00 +22°C° 0.1 mm 4 mps 737 mmHg 73%
11:00 +23°C° 0.1 mm 4 mps 737 mmHg 70%
12:00 +23°C° 0.1 mm 5 mps 737 mmHg 66%
13:00 +23°C° 0.1 mm 5 mps 738 mmHg 65%
14:00 +25°C° 0.1 mm 5 mps 738 mmHg 63%
15:00 +25°C° 0.1 mm 5 mps 738 mmHg 62%
16:00 +23°C° 0.1 mm 4 mps 738 mmHg 66%
17:00 +23°C° 0.1 mm 4 mps 739 mmHg 70%
18:00 +22°C° 0.1 mm 4 mps 739 mmHg 74%
19:00 +21°C° 0 mm 3 mps 739 mmHg 77%
20:00 +19°C° 0 mm 3 mps 740 mmHg 80%
21:00 +18°C° 0 mm 2 mps 740 mmHg 83%
22:00 +17°C° 0 mm 3 mps 740 mmHg 82%
23:00 +16°C° 0 mm 3 mps 741 mmHg 82%

Day after tomorrow, 17 June, Thursday

Time Temperature Precipitation Wind Pressure Humidity
00:00 +14°C° 0 mm 3 mps 741 mmHg 82%
01:00 +13°C° 0 mm 3 mps 742 mmHg 80%
02:00 +12°C° 0 mm 3 mps 742 mmHg 78%
03:00 +12°C° 0 mm 3 mps 742 mmHg 75%
04:00 +12°C° 0 mm 3 mps 743 mmHg 77%
05:00 +12°C° 0 mm 3 mps 743 mmHg 79%
06:00 +14°C° 0 mm 2 mps 744 mmHg 81%
07:00 +14°C° 0 mm 3 mps 744 mmHg 75%
08:00 +17°C° 0 mm 3 mps 744 mmHg 70%
09:00 +18°C° 0 mm 4 mps 745 mmHg 64%
10:00 +19°C° 0 mm 4 mps 745 mmHg 61%
11:00 +20°C° 0 mm 4 mps 745 mmHg 58%
12:00 +21°C° 0 mm 4 mps 746 mmHg 55%
13:00 +21°C° 0 mm 4 mps 746 mmHg 54%
14:00 +22°C° 0 mm 4 mps 746 mmHg 54%
15:00 +22°C° 0 mm 4 mps 746 mmHg 54%
16:00 +21°C° 0 mm 4 mps 746 mmHg 58%
17:00 +21°C° 0 mm 3 mps 746 mmHg 62%
18:00 +21°C° 0 mm 3 mps 746 mmHg 67%
19:00 +19°C° 0 mm 3 mps 746 mmHg 70%
20:00 +18°C° 0 mm 2 mps 746 mmHg 73%
21:00 +16°C° 0 mm 2 mps 746 mmHg 76%
22:00 +15°C° 0 mm 2 mps 746 mmHg 77%
23:00 +15°C° 0 mm 2 mps 747 mmHg 78%

18 June, Friday

Time Temperature Precipitation Wind Pressure Humidity
00:00 +14°C° 0 mm 2 mps 747 mmHg 79%
01:00 +14°C° 0 mm 2 mps 747 mmHg 78%
02:00 +14°C° 0 mm 2 mps 747 mmHg 77%
03:00 +13°C° 0 mm 1 mps 747 mmHg 76%
04:00 +14°C° 0 mm 1 mps 748 mmHg 77%
05:00 +15°C° 0 mm 1 mps 748 mmHg 77%
06:00 +15°C° 0 mm 1 mps 748 mmHg 78%
07:00 +17°C° 0 mm 2 mps 748 mmHg 74%
08:00 +18°C° 0 mm 2 mps 748 mmHg 70%
09:00 +20°C° 0 mm 2 mps 749 mmHg 65%
10:00 +21°C° 0 mm 2 mps 749 mmHg 63%
11:00 +23°C° 0 mm 2 mps 749 mmHg 60%
12:00 +23°C° 0 mm 2 mps 749 mmHg 57%
13:00 +24°C° 0 mm 2 mps 749 mmHg 56%
14:00 +24°C° 0 mm 2 mps 749 mmHg 56%
15:00 +24°C° 0 mm 2 mps 748 mmHg 55%
16:00 +24°C° 0 mm 2 mps 748 mmHg 59%
17:00 +24°C° 0 mm 2 mps 748 mmHg 63%
18:00 +24°C° 0 mm 2 mps 748 mmHg 67%
19:00 +21°C° 0 mm 2 mps 748 mmHg 71%
20:00 +19°C° 0 mm 2 mps 748 mmHg 76%
21:00 +18°C° 0 mm 2 mps 748 mmHg 81%
22:00 +17°C° 0 mm 2 mps 748 mmHg 82%
23:00 +16°C° 0 mm 1 mps 748 mmHg 84%

19 June, Saturday

Time Temperature Precipitation Wind Pressure Humidity
00:00 +15°C° 0 mm 1 mps 748 mmHg 85%
01:00 +15°C° 0 mm 1 mps 748 mmHg 85%
02:00 +15°C° 0 mm 1 mps 749 mmHg 85%
03:00 +14°C° 0 mm 1 mps 749 mmHg 85%
04:00 +15°C° 0 mm 1 mps 749 mmHg 84%
05:00 +16°C° 0 mm 1 mps 749 mmHg 83%
06:00 +18°C° 0 mm 1 mps 749 mmHg 82%
07:00 +19°C° 0 mm 1 mps 749 mmHg 78%
08:00 +20°C° 0 mm 1 mps 749 mmHg 73%
09:00 +22°C° 0 mm 1 mps 749 mmHg 69%
10:00 +23°C° 0 mm 2 mps 749 mmHg 66%
11:00 +24°C° 0 mm 2 mps 749 mmHg 62%
12:00 +24°C° 0 mm 2 mps 749 mmHg 59%
13:00 +25°C° 0 mm 2 mps 749 mmHg 58%
14:00 +25°C° 0 mm 2 mps 748 mmHg 57%
15:00 +25°C° 0 mm 2 mps 748 mmHg 56%
16:00 +25°C° 0 mm 2 mps 748 mmHg 59%
17:00 +25°C° 0 mm 2 mps 748 mmHg 62%
18:00 +25°C° 0 mm 1 mps 748 mmHg 65%
19:00 +23°C° 0 mm 1 mps 747 mmHg 70%
20:00 +21°C° 0 mm 1 mps 747 mmHg 75%
21:00 +20°C° 0 mm 1 mps 747 mmHg 80%
22:00 +19°C° 0 mm 1 mps 747 mmHg 82%
23:00 +18°C° 0 mm 1 mps 747 mmHg 84%

20 June, Sunday

Time Temperature Precipitation Wind Pressure Humidity
00:00 +18°C° 0 mm 1 mps 747 mmHg 86%
01:00 +16°C° 0 mm 1 mps 747 mmHg 86%
02:00 +16°C° 0 mm 1 mps 747 mmHg 87%
03:00 +16°C° 0 mm 1 mps 748 mmHg 87%
04:00 +16°C° 0 mm 1 mps 748 mmHg 86%
05:00 +18°C° 0 mm 1 mps 748 mmHg 85%
06:00 +19°C° 0 mm 1 mps 748 mmHg 84%
07:00 +18°C° 0 mm 0 mps 748 mmHg 80%
08:00 +20°C° 0 mm 0 mps 748 mmHg 75%
09:00 +21°C° 0 mm 0 mps 748 mmHg 71%
10:00 +24°C° 0 mm 1 mps 747 mmHg 67%
11:00 +25°C° 0 mm 1 mps 747 mmHg 63%
12:00 +26°C° 0 mm 2 mps 747 mmHg 59%
13:00 +26°C° 0 mm 1 mps 747 mmHg 58%
14:00 +26°C° 0 mm 1 mps 747 mmHg 57%
15:00 +27°C° 0 mm 1 mps 746 mmHg 56%
16:00 +27°C° 0 mm 1 mps 746 mmHg 59%
17:00 +26°C° 0 mm 1 mps 746 mmHg 62%
18:00 +26°C° 0 mm 1 mps 746 mmHg 65%
19:00 +25°C° 0 mm 1 mps 746 mmHg 70%
20:00 +23°C° 0 mm 1 mps 746 mmHg 74%
21:00 +21°C° 0 mm 1 mps 745 mmHg 79%
22:00 +19°C° 0 mm 0 mps 745 mmHg 80%
23:00 +18°C° 0 mm 0 mps 745 mmHg 82%
Show more